User: anonymous   Login
Location: Unspecified
(0.0000°N, 0.0000°E)
Time: 05:42:45
(UTC+00:00)
Language:

STARLINK-2470 - Orbit

View from above orbital plane
View from above orbital plane
View from above satellite
View from above satellite

Ground track
Ground track

The orbit is defined by the following mean orbital elements,

1 48334U          26145.30862700 +.00000000 +00000-0 +31581-4 0 00001
2 48334  53.1616 104.6689 0001622 100.2976 259.8208 15.31702281    00
Epoch (UTC): 25 May 2026 07:24:25
Eccentricity: 0.0001622
inclination: 53.1616°
perigee height: 470 km
apogee height: 472 km
right ascension of ascending node: 104.6689°
argument of perigee: 100.2976°
revolutions per day: 15.31702281
mean anomaly at epoch: 259.8208°

The dashed part of the orbit path shows where the satellite is in the earth's shadow,  

DLR